Temp
67 70 75 77 77 77 77 77 76 76 76 77 77 77 77 76 76 76 76 76 76 76 76 76 76 75 75 75 75 75 74 74 74 74 75 76 76 76 76 74 75 74 76
70 72 73 76 77 77 76 76 76 76 76 77 77 77 77 76 76 76 75 75 75 75 76 75 75 75 74 74 74 75 75 74 73 72 72 73 75 76 75 74 75 75 76
70 72 73 74 76 76 76 76 76 76 77 77 77 77 77 76 76 75 75 74 75 75 75 75 74 74 73 73 74 74 73 72 71 71 71 68 71 75 75 74 74 74 75
71 72 72 73 75 75 75 75 75 76 76 77 77 77 76 76 75 75 75 74 75 75 75 74 74 73 73 73 73 73 72 71 70 69 68 68 74 76 76 74 74 73 73
70 71 71 73 75 75 75 75 75 75 76 76 76 76 76 75 75 74 74 74 74 74 74 74 73 73 73 72 72 72 71 69 68 66 65 67 67 74 75 74 72 72 72
70 71 71 73 75 75 75 75 75 75 76 76 76 76 76 75 74 74 73 73 73 74 74 73 73 72 72 72 71 71 70 68 65 61 62 65 66 74 74 73 73 72 72
69 70 71 72 74 74 74 75 75 75 76 76 76 76 75 74 74 73 73 73 73 73 73 73 72 72 72 71 71 70 68 66 60 59 60 61 66 73 73 73 72 72 72
69 70 70 69 71 72 73 74 74 74 75 75 75 75 75 74 74 73 73 73 73 73 73 73 72 72 71 70 69 68 66 64 59 58 59 60 71 73 73 73 72 72 72
65 68 68 69 69 68 70 71 72 73 73 73 74 74 73 73 73 72 72 73 73 73 72 72 71 71 71 69 68 65 64 62 54 56 61 59 71 73 73 73 72 72 72
61 63 64 67 67 67 67 64 67 70 70 71 70 69 68 69 69 69 68 71 72 72 71 71 70 70 69 68 65 63 61 60 53 55 56 64 71 73 73 72 72 72 72
60 59 60 66 67 68 68 65 64 67 67 67 67 65 64 66 66 66 65 68 70 70 70 69 68 66 64 63 63 61 58 52 52 53 54 67 70 71 71 71 71 70 71
54 56 57 58 62 63 68 68 68 68 67 67 67 65 65 65 65 67 63 65 65 65 68 67 65 62 58 54 53 57 52 52 53 52 57 67 69 70 70 69 69 70 70
51 54 55 55 56 58 62 66 68 69 68 67 67 67 66 65 65 64 63 63 61 59 58 58 56 55 54 53 53 52 52 51 50 52 60 65 68 69 69 69 69 69 69
51 51 52 53 54 56 57 64 65 65 64 64 65 65 66 64 63 63 62 62 62 60 55 54 53 54 54 54 53 53 52 51 50 52 57 60 64 67 68 68 68 68 69
50 50 51 51 53 55 56 63 62 62 62 62 64 65 65 64 63 63 62 61 60 60 59 53 53 54 53 54 53 53 52 50 50 50 53 58 61 64 65 66 67 67 68
50 50 50 52 54 56 57 60 59 60 60 60 60 62 63 63 62 61 59 58 58 58 57 56 52 55 55 55 56 56 55 51 50 49 49 49 57 60 62 64 65 66 67
49 50 50 51 54 56 57 56 57 58 58 57 58 59 60 61 60 58 57 56 56 56 55 54 54 54 55 54 52 51 50 49 49 48 47 47 47 54 58 60 62 63 64
48 48 50 53 54 55 55 56 56 55 55 56 56 57 57 57 57 56 55 54 55 54 53 51 51 48 46 48 46 45 45 47 46 46 46 45 45 44 49 55 57 59 61
47 47 48 48 52 52 52 53 54 54 54 54 55 55 55 54 54 54 53 52 52 50 48 46 43 44 46 45 46 43 42 42 42 46 44 43 43 42 42 49 50 53 57
46 47 47 47 50 50 50 52 51 50 50 51 49 51 52 52 52 52 50 50 48 45 43 42 42 40 41 45 47 43 40 39 39 38 38 42 41 40 39 40 38 42 52
45 45 45 46 47 48 47 46 47 48 48 48 48 49 49 49 46 46 45 45 45 43 42 42 40 43 38 39 40 40 39 39 38 37 36 36 38 38 38 38 38 37 39
46 45 45 46 47 48 48 47 47 47 43 46 46 46 47 44 44 44 43 42 41 40 40 40 40 37 36 35 39 38 35 38 38 37 35 37 33 34 36 38 36 37 35
44 45 46 46 47 48 48 46 44 43 46 44 43 43 43 42 41 40 40 39 39 38 37 38 39 39 35 35 35 39 34 34 32 35 34 32 33 32 31 33 35 36 35
45 45 46 47 47 46 46 45 45 41 39 41 41 41 38 39 39 39 39 38 37 37 37 37 38 37 37 35 34 36 31 33 32 32 32 31 32 33 30 31 31 33 33
45 45 45 46 46 47 47 49 47 43 37 37 40 40 36 36 37 37 37 36 36 36 35 36 36 36 34 33 33 32 31 28 28 29 29 29 31 30 30 29 29 28 30
43 44 44 45 45 46 48 48 46 43 38 37 36 38 35 34 34 34 34 34 34 34 34 34 33 33 32 31 31 31 31 30 28 27 26 24 25 28 29 30 28 28 28
MSLP
1019.72 1019.48 1019.40 1019.52 1019.68 1019.76 1019.88 1020.00 1020.05 1020.14 1020.13 1020.21 1020.38 1020.49 1020.72 1020.60 1020.61 1020.93 1020.85 1021.00 1020.98 1020.73 1020.75 1020.81 1020.84 1020.89 1020.86 1020.78 1020.73 1020.70 1020.60 1020.62 1020.59 1020.54 1020.37 1020.21 1020.11 1020.03 1020.03 1020.00 1019.80 1019.63 1019.58
1019.30 1019.53 1019.60 1019.79 1019.94 1020.05 1020.20 1020.31 1020.35 1020.41 1020.52 1020.47 1020.58 1020.76 1020.88 1020.92 1021.17 1021.29 1021.45 1021.36 1021.26 1021.26 1021.22 1021.28 1021.36 1021.29 1021.26 1021.23 1021.13 1020.95 1020.87 1021.02 1021.08 1021.04 1020.84 1020.81 1020.59 1020.57 1020.63 1020.59 1020.38 1020.23 1020.09
1019.31 1019.49 1019.68 1019.79 1020.08 1020.18 1020.32 1020.46 1020.48 1020.58 1020.65 1020.81 1020.85 1020.99 1021.11 1021.27 1021.75 1021.73 1021.85 1021.66 1021.66 1021.65 1021.67 1021.55 1021.64 1021.69 1021.83 1021.72 1021.63 1021.51 1021.62 1021.69 1021.72 1021.56 1021.41 1021.35 1021.29 1021.14 1021.12 1021.20 1021.10 1020.89 1020.60
1019.23 1019.52 1019.75 1019.84 1020.05 1020.27 1020.42 1020.64 1020.76 1020.86 1021.02 1021.02 1021.23 1021.27 1021.49 1021.81 1022.11 1022.11 1022.15 1022.02 1022.11 1022.00 1022.00 1022.02 1022.07 1022.10 1022.13 1022.16 1022.16 1022.21 1022.30 1022.39 1022.38 1022.28 1022.12 1021.98 1021.64 1021.55 1021.54 1021.62 1021.66 1021.56 1021.25
1019.41 1019.67 1019.97 1020.12 1020.28 1020.54 1020.61 1020.83 1021.01 1021.14 1021.26 1021.31 1021.39 1021.53 1021.83 1022.07 1022.35 1022.22 1022.33 1022.41 1022.32 1022.36 1022.32 1022.32 1022.40 1022.46 1022.38 1022.54 1022.45 1022.53 1022.66 1022.82 1022.80 1022.77 1022.71 1022.53 1022.41 1022.18 1022.12 1022.12 1022.23 1022.12 1022.00
1019.73 1019.84 1020.12 1020.35 1020.51 1020.66 1020.80 1020.95 1021.10 1021.22 1021.29 1021.29 1021.34 1021.59 1021.78 1022.13 1022.32 1022.42 1022.57 1022.55 1022.59 1022.53 1022.53 1022.63 1022.73 1022.65 1022.64 1022.84 1022.90 1023.03 1023.14 1023.12 1023.12 1023.17 1023.03 1022.87 1022.63 1022.44 1022.48 1022.52 1022.45 1022.44 1022.39
1019.93 1020.06 1020.21 1020.39 1020.57 1020.74 1020.93 1021.12 1021.29 1021.39 1021.47 1021.59 1021.69 1021.83 1022.13 1022.35 1022.58 1022.62 1022.71 1022.93 1022.90 1022.83 1022.93 1023.18 1023.11 1023.10 1023.16 1023.21 1023.30 1023.50 1023.66 1023.68 1023.67 1023.64 1023.51 1023.31 1023.02 1022.82 1022.79 1022.83 1022.82 1022.77 1022.72
1019.82 1020.12 1020.33 1020.57 1020.78 1020.99 1021.19 1021.35 1021.46 1021.56 1021.69 1021.81 1021.96 1022.16 1022.38 1022.68 1022.72 1022.98 1023.23 1023.37 1023.17 1023.28 1023.38 1023.49 1023.45 1023.53 1023.63 1023.67 1023.87 1024.06 1024.03 1024.18 1024.14 1024.13 1023.96 1023.69 1023.29 1023.15 1023.24 1023.30 1023.26 1023.22 1023.14
1020.10 1020.12 1020.44 1020.67 1020.92 1021.10 1021.27 1021.44 1021.63 1021.83 1022.01 1022.17 1022.34 1022.51 1022.73 1022.97 1023.14 1023.36 1023.55 1023.72 1023.69 1023.69 1023.77 1023.85 1023.94 1024.03 1024.11 1024.29 1024.43 1024.66 1024.81 1024.88 1024.79 1024.63 1024.41 1024.20 1023.74 1023.61 1023.60 1023.58 1023.58 1023.61 1023.59
1020.74 1020.79 1020.83 1020.89 1021.05 1021.24 1021.41 1021.59 1021.77 1021.95 1022.16 1022.39 1022.60 1022.83 1023.07 1023.30 1023.54 1023.81 1023.97 1024.11 1024.25 1024.31 1024.22 1024.28 1024.40 1024.56 1024.71 1024.98 1025.27 1025.37 1025.59 1025.48 1025.49 1025.32 1024.95 1024.49 1024.14 1023.90 1023.82 1023.95 1024.01 1023.93 1023.80
1021.44 1021.41 1021.34 1021.23 1021.29 1021.37 1021.45 1021.70 1021.90 1022.03 1022.30 1022.47 1022.70 1023.00 1023.31 1023.61 1023.90 1024.15 1024.39 1024.51 1024.75 1024.84 1024.96 1025.03 1025.14 1025.29 1025.40 1025.52 1025.68 1025.77 1025.93 1026.06 1025.92 1025.77 1025.47 1024.92 1024.64 1024.70 1024.53 1024.50 1024.51 1024.40 1024.27
1021.82 1021.80 1021.77 1021.79 1021.73 1021.70 1021.56 1021.62 1021.71 1021.84 1022.17 1022.53 1022.90 1023.27 1023.52 1023.80 1024.14 1024.37 1024.65 1024.81 1025.04 1025.29 1025.46 1025.62 1025.72 1025.75 1025.93 1026.13 1026.27 1026.45 1026.62 1026.76 1026.65 1026.47 1026.13 1025.71 1025.48 1025.39 1025.38 1025.23 1025.14 1025.04 1024.97
1021.91 1022.04 1022.03 1022.02 1022.02 1021.93 1021.88 1021.74 1021.77 1021.81 1022.04 1022.49 1022.74 1023.07 1023.42 1023.87 1024.24 1024.58 1024.86 1025.17 1025.32 1025.59 1025.99 1026.14 1026.18 1026.23 1026.33 1026.48 1026.60 1026.84 1027.07 1027.31 1027.35 1027.21 1026.93 1026.47 1026.09 1025.93 1025.90 1025.89 1025.73 1025.62 1025.60
1022.11 1022.22 1022.24 1022.22 1022.17 1022.12 1022.10 1021.91 1021.90 1022.02 1022.29 1022.70 1022.84 1023.17 1023.48 1023.95 1024.33 1024.65 1024.97 1025.22 1025.42 1025.74 1026.34 1026.59 1026.65 1026.81 1026.78 1026.91 1026.98 1027.23 1027.51 1027.91 1028.03 1028.06 1027.91 1027.45 1027.09 1026.87 1026.52 1026.41 1026.25 1026.05 1025.93
1022.23 1022.32 1022.43 1022.38 1022.29 1022.20 1022.14 1021.99 1022.16 1022.35 1022.57 1022.79 1022.85 1023.01 1023.37 1023.72 1024.24 1024.62 1024.92 1025.35 1025.72 1026.05 1026.50 1026.99 1027.06 1027.08 1027.19 1027.39 1027.60 1027.80 1028.23 1028.62 1028.75 1028.93 1028.84 1028.64 1028.07 1027.86 1027.56 1027.26 1027.00 1026.69 1026.58
1022.24 1022.35 1022.42 1022.38 1022.20 1022.10 1022.09 1022.18 1022.45 1022.47 1022.74 1022.84 1022.91 1023.03 1023.22 1023.54 1024.10 1024.67 1025.16 1025.63 1025.97 1026.38 1026.88 1027.15 1027.31 1027.34 1027.44 1027.65 1027.95 1028.22 1028.73 1029.20 1029.49 1029.70 1029.80 1029.69 1029.09 1028.93 1028.65 1028.17 1027.91 1027.65 1027.35
1022.22 1022.31 1022.41 1022.39 1022.31 1022.17 1022.09 1022.43 1022.53 1022.77 1022.93 1023.00 1023.10 1023.26 1023.44 1023.74 1024.25 1024.76 1025.44 1025.92 1026.34 1026.66 1026.97 1027.39 1027.62 1027.74 1027.90 1028.28 1028.76 1029.17 1029.49 1029.90 1030.08 1030.37 1030.49 1030.35 1030.39 1030.14 1029.67 1029.46 1028.95 1028.68 1028.32
1022.16 1022.33 1022.39 1022.25 1022.32 1022.29 1022.42 1022.51 1022.80 1023.03 1023.17 1023.32 1023.37 1023.53 1023.72 1024.07 1024.49 1024.96 1025.60 1026.21 1026.62 1026.90 1027.24 1027.72 1028.01 1028.49 1028.96 1029.21 1029.83 1030.21 1030.44 1030.60 1030.88 1030.87 1031.04 1030.93 1031.08 1030.96 1030.69 1030.36 1030.11 1029.86 1029.55
1022.04 1022.35 1022.52 1022.56 1022.51 1022.60 1022.66 1022.68 1023.01 1023.40 1023.57 1023.74 1023.65 1023.82 1024.07 1024.31 1024.69 1024.99 1025.66 1026.44 1026.84 1027.22 1027.77 1028.09 1028.76 1028.78 1029.65 1030.07 1030.66 1030.93 1031.30 1031.37 1031.67 1031.61 1031.65 1031.69 1031.73 1031.69 1031.65 1031.30 1031.04 1030.86 1030.34
1021.96 1022.18 1022.40 1022.60 1022.68 1022.83 1022.97 1022.97 1023.40 1023.84 1024.18 1024.29 1024.47 1024.55 1024.58 1024.77 1025.09 1025.31 1025.99 1026.64 1027.25 1027.76 1028.43 1028.77 1029.06 1029.70 1029.99 1030.47 1031.28 1031.84 1032.26 1032.44 1032.41 1032.54 1032.42 1032.36 1032.25 1032.19 1032.26 1032.25 1032.07 1031.88 1031.31
1021.79 1022.11 1022.32 1022.55 1022.76 1022.92 1023.15 1023.43 1023.91 1024.10 1024.64 1024.70 1024.83 1024.96 1025.16 1025.72 1025.94 1026.10 1026.48 1027.02 1027.48 1028.02 1028.62 1028.94 1029.63 1030.10 1031.05 1031.30 1031.53 1032.61 1033.12 1033.03 1033.01 1033.22 1032.97 1032.85 1032.83 1032.87 1032.77 1032.70 1032.80 1032.82 1032.71
1020.98 1021.45 1021.90 1022.25 1022.56 1022.83 1022.97 1023.22 1023.72 1024.42 1025.10 1025.12 1025.44 1025.41 1025.66 1026.18 1026.50 1026.75 1026.87 1027.37 1027.93 1028.48 1029.00 1029.27 1029.52 1030.66 1031.59 1031.69 1031.98 1032.58 1033.46 1033.76 1033.63 1033.43 1033.58 1033.31 1033.48 1033.52 1033.42 1033.32 1033.53 1033.42 1033.51
1020.50 1020.80 1021.28 1021.78 1022.20 1022.58 1022.97 1023.36 1024.05 1024.86 1025.41 1025.75 1026.06 1026.17 1026.47 1026.74 1027.05 1027.29 1027.47 1027.72 1028.32 1028.66 1029.28 1029.53 1029.70 1030.09 1031.44 1032.32 1032.06 1032.19 1033.42 1033.71 1033.93 1033.93 1034.08 1034.10 1033.85 1033.81 1033.87 1033.74 1033.84 1033.94 1033.95
1019.36 1020.20 1020.77 1021.29 1021.78 1022.21 1022.62 1023.16 1023.57 1024.31 1025.32 1025.68 1026.06 1026.45 1027.02 1027.21 1027.49 1027.72 1027.87 1028.05 1028.49 1028.94 1029.28 1029.64 1029.91 1030.12 1030.78 1032.08 1032.41 1032.80 1032.89 1033.36 1034.36 1034.73 1034.35 1034.18 1033.90 1034.12 1034.26 1034.15 1034.16 1034.23 1034.35
1018.75 1019.36 1020.17 1020.90 1021.40 1021.82 1022.35 1022.86 1023.43 1024.29 1025.05 1025.63 1026.36 1026.80 1027.43 1027.74 1027.91 1028.15 1028.21 1028.33 1028.66 1029.10 1029.56 1029.87 1030.30 1030.54 1031.14 1032.05 1032.69 1033.44 1033.91 1034.07 1034.45 1034.92 1035.05 1034.75 1034.36 1034.31 1034.47 1034.42 1034.49 1034.59 1034.45
1018.35 1019.13 1019.78 1020.40 1021.03 1021.50 1021.94 1022.48 1023.07 1023.73 1024.89 1025.92 1026.54 1027.03 1027.67 1028.11 1028.43 1028.60 1028.54 1028.67 1029.05 1029.48 1029.92 1030.33 1030.75 1031.06 1031.57 1032.13 1032.81 1033.23 1033.90 1034.26 1035.01 1035.33 1035.36 1035.69 1035.84 1034.97 1034.56 1034.41 1034.55 1034.45 1034.72
Wind_Speed
3 4 8 10 12 13 14 14 13 11 12 16 17 18 18 18 19 17 18 16 17 18 18 18 18 18 18 17 17 15 13 12 17 17 18 19 20 21 22 22 18 15 21
7 5 10 12 13 13 13 12 11 11 13 15 16 17 16 18 18 18 17 17 18 18 18 18 17 17 18 17 17 16 19 17 16 15 16 16 19 20 20 20 18 16 20
6 6 8 13 12 12 12 10 11 12 13 13 16 16 17 19 17 18 18 18 17 17 17 18 18 18 17 18 18 20 21 20 18 17 15 6 11 19 19 19 18 18 18
8 6 6 11 13 12 11 11 11 12 11 13 15 15 17 17 16 17 17 17 16 17 17 18 18 19 19 19 19 20 20 19 18 17 9 9 9 18 18 18 18 19 18
6 6 6 10 11 11 11 11 10 11 11 14 15 15 16 15 15 16 16 16 16 16 17 17 17 18 19 19 19 20 19 19 18 13 9 9 7 15 19 18 16 17 17
5 6 8 10 11 10 10 11 11 12 13 13 14 14 16 15 15 15 15 15 15 16 16 16 16 17 19 18 19 18 17 16 13 7 7 8 6 17 17 17 17 17 17
6 6 7 10 10 10 10 10 9 10 11 11 12 13 14 14 14 14 14 14 15 16 16 16 16 17 17 18 17 16 16 15 7 7 6 7 7 16 17 16 16 16 17
9 7 6 8 9 9 9 9 9 9 10 10 11 12 14 13 13 13 13 13 15 15 16 15 16 16 16 17 17 17 16 14 8 7 7 6 13 17 17 16 17 16 16
5 6 5 5 7 7 8 8 7 7 7 8 8 10 10 11 11 11 10 11 13 14 15 16 16 16 16 17 17 17 17 17 8 6 7 4 15 17 17 18 18 17 17
6 5 3 4 5 5 5 6 6 7 7 8 8 8 8 8 9 8 7 9 10 10 13 15 15 16 18 18 17 17 17 16 8 7 6 6 16 18 17 17 16 16 16
4 4 3 2 1 3 5 5 6 7 7 7 7 9 8 4 5 6 6 10 10 10 11 14 15 16 16 17 17 16 13 4 6 5 4 15 19 20 20 21 22 22 19
3 1 2 3 3 2 1 3 4 5 5 5 5 6 4 5 4 5 7 10 12 13 12 13 14 14 10 5 5 11 5 6 6 5 5 17 20 20 20 20 21 21 21
3 1 2 2 3 3 2 1 1 2 2 2 5 6 5 4 4 4 4 3 3 7 4 5 6 4 6 5 5 6 6 6 5 6 12 18 20 20 21 20 19 19 20
4 3 1 3 2 1 1 0 2 2 3 2 2 3 4 4 4 4 3 3 3 4 5 4 3 5 6 7 6 8 8 6 5 5 11 21 21 21 21 21 20 19 19
6 4 1 1 2 2 3 2 3 3 3 3 3 5 5 6 5 4 4 3 4 4 4 4 4 5 5 7 7 9 10 8 8 6 7 22 22 23 23 22 22 21 19
6 6 3 3 3 4 4 4 4 4 4 3 3 4 5 6 6 5 5 4 4 4 4 3 4 4 5 6 8 10 10 9 9 9 6 8 24 24 25 24 24 24 22
5 5 5 4 3 4 6 4 4 3 3 3 4 5 7 6 7 7 5 5 4 4 6 4 4 4 6 7 10 9 8 9 9 9 7 7 8 20 25 25 24 24 24
5 6 5 4 5 4 5 4 4 3 3 3 4 4 6 7 7 6 6 5 4 4 4 4 4 6 6 7 7 6 7 8 8 9 8 6 7 7 13 24 24 24 24
7 7 6 5 5 5 5 5 6 5 4 2 4 5 6 7 6 7 6 5 5 5 4 3 4 4 7 7 8 7 6 7 6 6 9 8 9 8 7 17 21 23 23
7 7 6 5 6 6 4 6 5 5 4 4 4 3 6 5 7 8 6 7 5 5 5 4 6 5 4 7 8 8 6 5 5 6 6 6 7 9 7 9 7 9 22
7 7 7 7 7 6 4 4 3 5 3 3 4 5 8 5 5 7 6 6 5 5 5 5 4 10 5 3 5 5 4 5 6 5 4 5 7 7 8 8 6 6 8
12 10 9 9 8 6 3 3 3 4 3 4 3 5 6 6 5 5 6 6 6 6 6 4 3 4 3 4 3 3 2 2 2 4 4 5 6 4 7 8 7 8 7
12 13 11 10 10 6 6 7 6 6 4 3 3 3 3 5 5 6 6 6 6 5 5 4 5 7 5 4 6 3 3 3 1 2 4 5 6 5 4 5 6 7 7
15 10 11 11 11 7 9 6 12 5 5 3 2 3 4 5 6 6 6 7 7 5 6 5 3 4 5 5 3 6 6 4 3 1 2 3 4 6 5 4 5 6 7
13 13 11 10 10 10 9 10 8 7 3 4 5 9 5 5 6 6 6 7 7 5 6 7 6 6 3 4 3 2 4 5 4 3 1 4 4 3 3 3 4 4 5
10 11 11 13 11 11 11 11 10 13 11 9 6 7 5 4 4 5 6 6 6 6 7 6 6 8 7 6 4 4 2 3 2 2 2 1 2 4 3 3 3 4 4
Wind_Direction
189 163 130 124 114 105 103 101 98 94 92 102 96 93 92 85 75 65 62 65 63 61 58 55 54 55 54 52 48 43 50 64 58 54 58 62 58 55 45 38 35 41 41
137 153 133 119 113 112 110 111 110 106 95 101 97 97 96 87 76 70 65 64 63 61 60 60 55 53 55 53 44 53 68 73 58 46 52 51 59 55 51 43 39 37 38
137 138 128 119 122 121 123 121 107 97 95 96 102 100 94 84 78 70 65 64 62 59 57 58 56 56 55 54 55 66 66 63 53 43 39 33 49 51 49 47 44 41 41
136 133 131 129 130 127 116 105 103 102 101 105 99 99 95 87 83 80 76 74 71 66 62 60 58 56 57 55 67 68 65 59 51 42 35 24 38 48 47 43 41 39 37
120 122 133 134 129 127 121 113 110 107 104 105 100 101 101 96 91 88 84 83 78 76 74 71 70 71 68 68 74 71 67 62 55 43 34 33 33 38 37 38 40 39 37
132 130 143 139 134 131 127 128 126 121 119 117 118 121 119 117 109 102 96 91 90 87 85 83 83 81 76 78 81 77 73 69 60 42 38 30 44 50 48 45 42 41 39
150 147 153 149 145 143 140 133 130 127 126 126 124 128 129 121 115 108 102 96 90 85 83 82 81 81 80 81 82 79 74 68 58 47 35 25 42 52 50 48 47 46 45
156 160 154 158 153 151 148 144 149 145 141 137 138 140 137 131 125 118 108 103 98 94 89 86 85 82 81 81 81 74 71 66 53 44 30 18 46 52 51 50 49 46 46
75 115 121 147 154 156 158 163 165 156 151 151 148 140 138 134 132 126 117 106 98 96 93 85 80 76 73 74 74 70 65 60 49 39 28 6 45 50 51 49 46 43 40
64 76 112 148 162 167 169 177 179 168 165 157 148 141 137 140 134 125 116 98 87 77 85 87 79 73 69 67 67 65 58 51 42 29 16 26 45 50 51 50 45 42 41
52 48 40 59 53 201 174 182 196 187 171 162 149 142 139 135 132 127 111 94 81 63 62 69 68 65 66 68 69 70 67 49 50 35 11 41 51 45 38 40 35 35 32
163 104 40 28 21 354 17 166 204 170 174 166 148 150 148 141 131 114 111 106 91 74 75 78 73 71 63 63 59 60 54 42 41 30 25 48 52 50 47 45 37 31 28
166 132 26 19 7 1 332 268 272 219 121 134 156 165 152 123 119 113 115 106 106 89 70 66 75 70 79 75 69 68 66 57 44 36 35 46 53 54 50 46 44 40 34
174 182 8 354 339 300 268 185 146 127 113 116 155 141 145 134 125 129 124 128 108 92 88 74 74 72 72 65 72 72 68 61 48 42 37 40 48 48 47 42 40 38 40
184 196 205 282 257 236 173 127 100 101 96 117 116 136 141 146 130 129 116 99 90 89 92 84 80 78 70 73 66 78 67 59 57 52 48 48 47 49 46 44 40 37 32
187 196 197 205 207 188 147 119 118 111 119 116 95 101 105 125 124 119 104 94 93 90 84 86 94 95 84 84 84 82 77 67 57 54 46 35 48 50 46 43 41 37 33
194 187 192 176 164 155 118 124 113 106 93 98 96 88 97 107 114 115 111 99 96 98 101 91 76 68 81 71 72 73 74 66 64 58 50 47 38 42 47 43 41 38 38
176 188 184 170 158 133 128 126 109 101 101 97 102 89 93 97 113 109 114 105 106 99 101 96 83 78 71 80 80 67 65 70 67 58 54 50 45 42 37 45 41 37 33
181 175 184 178 151 145 131 119 97 85 76 84 101 109 110 112 113 117 110 104 98 95 86 100 71 91 100 86 86 69 58 61 52 57 52 47 46 42 39 39 41 36 34
181 179 175 173 161 145 119 105 92 84 60 48 49 64 96 100 115 111 109 109 104 96 87 79 96 61 87 100 90 74 55 49 54 51 46 48 44 42 38 37 33 26 39
183 178 180 171 175 152 142 124 124 122 103 69 68 84 88 76 72 104 110 112 105 108 114 116 106 99 61 66 97 70 47 51 56 44 37 44 42 35 41 37 38 35 29
183 184 181 183 173 172 156 112 118 125 64 81 59 77 85 99 102 110 123 114 109 113 101 94 99 110 84 11 119 117 128 337 49 58 39 41 44 35 35 39 44 46 37
191 188 184 180 177 167 135 111 94 82 91 88 59 86 78 104 99 109 106 114 110 107 120 123 114 112 125 32 47 127 111 210 17 8 37 27 38 46 41 42 44 45 38
197 177 180 178 174 157 152 140 156 147 156 139 125 117 95 94 101 107 110 109 109 113 107 108 112 108 114 124 64 37 53 102 139 323 357 353 24 35 30 30 51 49 35
175 180 177 171 166 161 162 163 159 137 108 113 128 121 109 93 95 102 112 113 107 101 94 107 103 95 93 113 113 118 56 53 45 114 255 329 354 350 39 34 65 61 37
167 172 170 172 174 168 167 164 163 153 144 139 141 134 135 115 108 111 109 106 109 109 112 102 93 89 92 86 87 87 133 140 128 118 95 354 312 305 325 30 75 64 38